sat.trackr.live / text

‹ back to catalog

ONEWEB-0716

NORAD 55177 · 2023-004AP

PAYLOAD ACTIVE UNKNOWN

§ Identity

Operator
Country
UK
Launch date
2023-01-10
Launch site
AFETR
Launch vehicle
Mass (kg)
RCS (m²)

Purposes: comms

External: N2YO · Heavens-Above · Gunter

§ Orbital elements

Epoch: 2026-05-25T02:41:54.909312Z

Period
109.29 min
Inclination
87.9154°
Eccentricity
0.0001788
Mean motion
13.17650093 rev/d
Perigee alt
1,192.4 km
Apogee alt
1,195.1 km
Semi-major
7,571.8 km
B*
4.1520e-5
RAAN
10.4573°
Arg perigee
76.3213°
Mean anomaly
283.8118°
Rev number
16,454

§ Raw data

ONEWEB-07161 55177U 23004AP  26145.11244108  .00000029  00000+0  41520-4 0  99992 55177  87.9154  10.4573 0001788  76.3213 283.8118 13.17650093164543

JSON: /api/v1/satellites/55177 · /tle

For live sub-satellite position, see the globe view (requires WebGL).

§ Visibility from observer

Set your observer location to see the next 7 days of passes ≥ 10°. The values pass through the URL so the page stays shareable.

No JS? Fill the form by hand. The geolocation button needs JavaScript.